[[{"header":{"parameterUnit":"m.s-1","parameterCategory":1,"la1":30.2991,"la2":30.254,"lo1":-89.0895,"lo2":-89.0444,"dy":0.0017,"dx":0.0017,"nx":28,"ny":28,"refTime":"2023-03-29T21:00:00:Z","depth":0,"parameterNumber":2,"parameterNumberName":"U-component_of_WINDS"},"data":[0,0,0,0,0,0,0,0,0,0,0,0,0,0,0,0,0,0,0,0,0,0,0,0,0,0,0,0,0,0,0,0,0,0,0,0,0,0,0,0,0,0,0,0,0,0,0,0,0,0,0,0,0,0,0,0,0,0,-3.3588,-3.359,0,-3.3731,-3.3732,-3.3734,-3.3762,-3.3761,-3.376,-3.3759,-3.3904,-3.3909,-3.3914,0,0,0,0,0,0,0,0,0,0,0,0,0,-3.3341,-3.3346,-3.3588,-3.359,-3.3592,-3.373,-3.3732,-3.3734,-3.3762,-3.3761,-3.3759,-3.3758,-3.3903,-3.3908,-3.3914,0,0,0,0,0,0,0,0,0,0,0,0,0,-3.3463,-3.3347,-3.3588,-3.3622,-3.3627,-3.373,-3.3732,-3.3735,-3.3762,-3.3761,-3.3759,-3.3758,-3.3901,-3.3908,-3.3915,-3.3994,0,0,-3.3938,-3.3941,0,0,0,0,0,0,0,0,-3.3456,-3.3472,-3.3615,-3.362,-3.3625,-3.3727,-3.3699,-3.3822,-3.3763,-3.3711,-3.3759,-3.3757,-3.3847,-3.3858,-3.3889,-3.4001,-3.4007,-3.3938,-3.3943,-3.3946,-3.3948,0,0,0,0,0,0,0,-3.3447,-3.3466,-3.3644,-3.3617,-3.3624,-3.3631,-3.3646,-3.3722,-3.3786,-3.3715,-3.3718,-3.3734,-3.3849,-3.3881,-3.3892,-3.4009,-3.3938,-3.3945,-3.3949,-3.3952,-3.4194,-3.4196,0,0,0,0,0,0,-3.3433,-3.3459,-3.364,-3.3649,-3.3535,-3.3637,-3.3654,-3.3696,-3.3786,-3.3798,-3.3735,-3.3735,-3.387,-3.3884,-3.3897,-3.3996,-3.3946,-3.3953,-3.3957,-3.4192,-3.4195,-3.4197,0,0,0,0,0,0,-3.3427,-3.3449,-3.3634,-3.3554,-3.3579,-3.3643,-3.369,-3.37,-3.3732,-3.3801,-3.3812,-3.3757,-3.3869,-3.3887,-3.397,-3.4001,-3.3956,-3.3963,-3.419,-3.4193,-3.4196,-3.4192,0,0,0,0,0,0,-3.342,-3.3447,-3.3476,-3.3555,-3.3583,-3.3704,-3.3692,-3.3704,-3.3745,-3.3745,-3.3824,-3.3835,-3.3869,-3.3959,-3.3977,-3.401,-3.3968,-3.4187,-3.4191,-3.4195,-3.419,-3.4195,-3.4199,0,0,0,0,0,-3.3411,-3.347,-3.3478,-3.35,-3.3622,-3.3705,-3.3721,-3.3759,-3.3747,-3.3778,-3.3823,-3.3833,-3.3995,-3.3967,-3.3988,-3.4024,-3.4185,-3.419,-3.4194,-3.4188,-3.4194,-3.4199,0,0,0,0,0,0,-3.3393,-3.348,-3.349,-3.3576,-3.3633,-3.371,-3.375,-3.3764,-3.3826,-3.3824,-3.3868,-3.3886,-3.3966,-3.4004,-3.3971,-3.4106,-3.409,-3.4099,-3.4077,-3.4084,-3.4088,-3.4077,-3.3975,0,0,0,0,0,-3.3399,-3.3459,-3.3533,-3.3601,-3.3629,-3.3685,-3.3723,-3.3747,-3.3808,-3.3832,-3.3883,-3.3942,-3.4006,-3.4047,-3.411,-3.4196,-3.4214,-3.4232,-3.4236,-3.424,-3.4246,-3.4295,-3.4304,-3.4212,-3.4212,-3.4212,0,0,-3.3411,-3.3467,-3.3502,-3.3599,-3.3646,-3.3708,-3.3705,-3.377,-3.3817,-3.3842,-3.3923,-3.3963,-3.4032,-3.4116,-3.4156,-3.415,-3.4276,-3.4245,-3.4248,-3.4253,-3.4301,-3.4309,-3.4317,-3.4215,-3.4214,-3.4214,0,0,-3.3465,-3.3514,-3.3576,-3.3624,-3.3696,-3.3733,-3.3748,-3.3823,-3.385,-3.3933,-3.3954,-3.401,-3.412,-3.4168,-3.4207,-3.4283,-3.4294,-3.4302,-3.4325,-3.4373,-3.438,-3.4387,-3.4413,-3.4422,-3.4309,-3.4309,-3.4309,0,-3.3472,-3.3566,-3.3606,-3.3671,-3.3714,-3.3741,-3.3804,-3.3849,-3.3937,-3.3966,-3.3959,-3.4098,-3.4146,-3.4243,-3.4262,-3.4293,-3.4311,-3.4292,-3.4376,-3.4383,-3.439,-3.4415,-3.4425,-3.431,-3.431,-3.4309,-3.4309,0,-3.357,-3.3635,-3.3677,-3.3762,-3.381,-3.3874,-3.3925,-3.3968,-3.3989,-3.4027,-3.4111,-3.4171,-3.4246,-3.4272,-3.4293,-3.4372,-3.4366,-3.4367,-3.4351,-3.4398,-3.4423,-3.4433,-3.431,-3.431,-3.431,-3.431,0,0,-3.3614,-3.3723,-3.3737,-3.3777,-3.3859,-3.391,-3.3977,-3.4051,-3.4087,-3.4149,-3.4205,-3.4299,-3.43,-3.4344,-3.4372,-3.4413,-3.4469,-3.4409,-3.4411,-3.4417,-3.456,-3.4558,-3.4569,-3.4478,-3.4481,-3.4482,-3.4554,0,-3.3677,-3.3795,-3.3835,-3.3933,-3.3994,-3.4022,-3.408,-3.4137,-3.4175,-3.4233,-3.4275,-3.434,-3.4338,-3.4365,-3.4407,-3.4453,-3.4498,-3.4449,-3.4531,-3.4533,-3.4511,-3.4582,-3.458,-3.4645,-3.4564,-3.4566,-3.4567,0,-3.3766,-3.3829,-3.3933,-3.4009,-3.4037,-3.4088,-3.416,-3.4215,-3.4281,-3.4306,-3.4356,-3.4381,-3.4452,-3.4434,-3.4532,-3.4498,-3.4535,-3.4563,-3.4566,-3.4574,-3.4552,-3.4591,-3.4667,-3.4676,-3.4583,-3.4582,-3.4581,0,-3.3787,-3.3898,-3.3975,-3.4008,-3.4099,-3.4134,-3.4174,-3.4238,-3.4281,-3.4345,-3.4373,-3.4444,-3.4483,-3.4538,-3.4581,-3.4564,-3.4676,-3.4661,-3.4698,-3.4697,-3.4718,-3.4716,-3.48,-3.4744,-3.4744,-3.4744,-3.4744,0,-3.3853,-3.3915,-3.3985,-3.4032,-3.4104,-3.415,-3.4219,-3.4261,-3.4318,-3.4374,-3.4404,-3.4456,-3.451,-3.457,-3.4605,-3.4681,-3.4699,-3.4721,-3.4729,-3.4717,-3.4714,-3.474,-3.4736,-3.4747,-3.4746,-3.4746,-3.4745,0,-3.3887,-3.3936,-3.4022,-3.4102,-3.4123,-3.4172,-3.4241,-3.4288,-3.4328,-3.4399,-3.4418,-3.4481,-3.4553,-3.4602,-3.4695,-3.4718,-3.48,-3.4809,-3.4778,-3.4781,-3.4815,-3.4811,-3.4917,-3.4934,-3.4868,-3.4869,-3.4869,0,-3.3924,-3.3973,-3.4059,-3.4098,-3.4138,-3.4202,-3.4246,-3.4294,-3.4339,-3.4419,-3.4457,-3.4531,-3.4592,-3.4706,-3.476,-3.4831,-3.484,-3.4873,-3.4851,-3.4838,-3.484,-3.4836,-3.4841,-3.4875,-3.4876,-3.4876,-3.4877,0,-3.3986,-3.4009,-3.4071,-3.4143,-3.4195,-3.4254,-3.4313,-3.4344,-3.4403,-3.4452,-3.4526,-3.4574,-3.4668,-3.4741,-3.4818,-3.4859,-3.4878,-3.4884,-3.4896,-3.4883,-3.4863,-3.4874,-3.4786,-3.488,-3.488,-3.488,-3.488,-3.4879,-3.4023,-3.4068,-3.4135,-3.4204,-3.4254,-3.4309,-3.4358,-3.4405,-3.4467,-3.4548,-3.4573,-3.465,-3.4716,-3.4821,-3.4864,-3.4925,-3.4922,-3.494,-3.4944,-3.4947,-3.4947,-3.4855,-3.4939,-3.4939,-3.4939,-3.4939,-3.4939,0,-3.4086,-3.4131,-3.4194,-3.4276,-3.4331,-3.4345,-3.4411,-3.4456,-3.4523,-3.4584,-3.4644,-3.473,-3.4802,-3.4862,-3.4937,-3.4974,-3.4984,-3.4992,-3.4989,-3.4998,-3.4945,-3.4927,-3.4982,-3.4982,-3.4982,-3.4982,-3.4982,-3.4982,-3.4125,-3.4201,-3.4232,-3.4335,-3.438,-3.4455,-3.4492,-3.4544,-3.4592,-3.4686,-3.4746,-3.4786,-3.4847,-3.4926,-3.4993,-3.5009,-3.5034,-3.504,-3.5057,-3.5007,-3.5002,-3.4997,-3.498,-3.5045,-3.5045,-3.5105,-3.5106,-3.5106]},{"header":{"parameterUnit":"m.s-1","parameterCategory":1,"la1":30.2991,"la2":30.254,"lo1":-89.0895,"lo2":-89.0444,"dy":0.0017,"dx":0.0017,"nx":28,"ny":28,"refTime":"2023-03-29T21:00:00:Z","depth":0,"parameterNumber":3,"parameterNumberName":"V-component_of_WINDS"},"data":[0,0,0,0,0,0,0,0,0,0,0,0,0,0,0,0,0,0,0,0,0,0,0,0,0,0,0,0,0,0,0,0,0,0,0,0,0,0,0,0,0,0,0,0,0,0,0,0,0,0,0,0,0,0,0,0,0,0,4.5578,4.5579,0,4.5692,4.5693,4.5695,4.5692,4.569,4.5689,4.5687,4.5803,4.5808,4.5812,0,0,0,0,0,0,0,0,0,0,0,0,0,4.5357,4.5361,4.5577,4.5579,4.558,4.5692,4.5693,4.5695,4.5692,4.569,4.5688,4.5687,4.5802,4.5807,4.5812,0,0,0,0,0,0,0,0,0,0,0,0,0,4.546,4.5363,4.5577,4.5592,4.5595,4.5692,4.5693,4.5695,4.5692,4.569,4.5688,4.5686,4.58,4.5807,4.5813,4.5902,0,0,4.5834,4.5837,0,0,0,0,0,0,0,0,4.5455,4.5468,4.5589,4.5591,4.5594,4.5675,4.5658,4.5765,4.5693,4.5655,4.5687,4.5684,4.5762,4.5772,4.5799,4.5907,4.5912,4.5835,4.5839,4.5842,4.5844,0,0,0,0,0,0,0,4.5447,4.5464,4.5623,4.559,4.5594,4.5594,4.5606,4.5678,4.5721,4.5658,4.5659,4.5672,4.5764,4.5792,4.5801,4.5914,4.5834,4.584,4.5845,4.5847,4.6104,4.6107,0,0,0,0,0,0,4.5437,4.5458,4.5619,4.5626,4.5517,4.56,4.5613,4.5652,4.572,4.5728,4.5674,4.5672,4.5782,4.5793,4.5805,4.5915,4.5842,4.5848,4.5852,4.6101,4.6105,4.6107,0,0,0,0,0,0,4.5432,4.5451,4.5614,4.5542,4.5563,4.5606,4.5649,4.5655,4.5684,4.5732,4.5739,4.5696,4.578,4.5796,4.5879,4.5919,4.5851,4.5857,4.6098,4.6102,4.6106,4.6134,0,0,0,0,0,0,4.5426,4.545,4.5483,4.5543,4.5567,4.5685,4.5652,4.5659,4.5696,4.5694,4.5754,4.5761,4.578,4.5869,4.5885,4.5927,4.5863,4.6095,4.61,4.6105,4.6129,4.6138,4.6146,0,0,0,0,0,4.5418,4.5486,4.5485,4.5505,4.561,4.5688,4.5701,4.5721,4.5699,4.5733,4.5765,4.5759,4.5912,4.5877,4.5896,4.594,4.6092,4.6098,4.6104,4.6126,4.6136,4.6146,0,0,0,0,0,0,4.5429,4.5494,4.5494,4.5582,4.563,4.5687,4.5731,4.5732,4.5786,4.5782,4.5804,4.5818,4.5901,4.5929,4.5889,4.6031,4.5999,4.601,4.6009,4.602,4.6028,4.6019,4.5868,0,0,0,0,0,4.5442,4.55,4.5553,4.5627,4.5651,4.5687,4.5722,4.5733,4.5783,4.5803,4.584,4.5888,4.5947,4.5985,4.6042,4.6134,4.6148,4.6174,4.6183,4.6189,4.6197,4.625,4.6262,4.6128,4.6128,4.6128,0,0,4.5468,4.5511,4.5546,4.563,4.5668,4.5728,4.5703,4.5767,4.5812,4.5812,4.5893,4.5922,4.5978,4.6066,4.6107,4.6092,4.6238,4.6197,4.6202,4.6206,4.6257,4.627,4.6281,4.6132,4.6131,4.613,0,0,4.5547,4.5585,4.5651,4.5691,4.5749,4.5773,4.579,4.5848,4.5867,4.5949,4.5951,4.6005,4.6106,4.6146,4.618,4.6278,4.6276,4.6296,4.6338,4.6389,4.64,4.641,4.6445,4.6457,4.6304,4.6305,4.6305,0,4.5573,4.5663,4.5685,4.575,4.5787,4.5792,4.586,4.5897,4.597,4.5996,4.598,4.6108,4.6146,4.6244,4.6269,4.6296,4.6315,4.6288,4.6397,4.6407,4.6416,4.645,4.6463,4.6307,4.6306,4.6306,4.6306,0,4.5692,4.5755,4.5801,4.5874,4.5917,4.5982,4.6015,4.6056,4.6066,4.6092,4.6176,4.6222,4.6289,4.6314,4.6323,4.6415,4.6404,4.6392,4.636,4.643,4.6463,4.6476,4.631,4.6309,4.6308,4.6308,0,0,4.5777,4.5864,4.588,4.5914,4.5981,4.603,4.6097,4.6164,4.6199,4.6251,4.6308,4.6395,4.6386,4.6424,4.6438,4.6483,4.6559,4.6465,4.6467,4.6481,4.6664,4.6672,4.6687,4.6559,4.6561,4.6563,4.6659,0,4.5863,4.5982,4.6006,4.6109,4.6168,4.6176,4.6235,4.6282,4.631,4.6364,4.6395,4.6456,4.6438,4.6462,4.6507,4.654,4.6596,4.6534,4.6612,4.6614,4.6596,4.6703,4.6712,4.68,4.6672,4.6674,4.6676,0,4.5978,4.6035,4.6144,4.6205,4.6231,4.6283,4.6347,4.64,4.6455,4.6472,4.6516,4.6526,4.6597,4.6564,4.6663,4.662,4.6654,4.6676,4.668,4.6687,4.6648,4.6713,4.6828,4.6841,4.6696,4.6694,4.6693,0,4.603,4.6133,4.6213,4.6241,4.6314,4.6351,4.6383,4.6436,4.6476,4.6532,4.6559,4.6623,4.6657,4.6707,4.6735,4.6708,4.6832,4.68,4.6848,4.6847,4.6872,4.687,4.6994,4.6896,4.6895,4.6895,4.6895,0,4.6123,4.6189,4.6237,4.6285,4.6361,4.6389,4.6463,4.6495,4.6543,4.6598,4.6609,4.6661,4.6695,4.6752,4.6774,4.6853,4.6869,4.6885,4.689,4.6883,4.6881,4.6905,4.6899,4.6899,4.6898,4.6897,4.6897,0,4.6192,4.6226,4.6314,4.6377,4.6394,4.6447,4.6502,4.655,4.6579,4.6649,4.6667,4.6713,4.6781,4.6814,4.6898,4.6913,4.7003,4.7004,4.6984,4.6986,4.7031,4.7027,4.7174,4.7195,4.7083,4.7084,4.7085,0,4.6248,4.63,4.6369,4.6408,4.6441,4.6503,4.6544,4.6574,4.6616,4.6685,4.6725,4.6794,4.685,4.696,4.7,4.7065,4.7068,4.7115,4.7077,4.707,4.7068,4.7065,4.707,4.7121,4.7122,4.7123,4.7124,0,4.6344,4.636,4.6418,4.6484,4.6533,4.6586,4.6638,4.6669,4.6708,4.6755,4.6825,4.687,4.6957,4.7026,4.7095,4.7128,4.7133,4.7136,4.715,4.7144,4.713,4.7138,4.7002,4.7132,4.7131,4.713,4.713,4.713,4.6409,4.6456,4.6513,4.6578,4.6621,4.667,4.6719,4.6755,4.6815,4.6889,4.6903,4.6978,4.7035,4.7128,4.7164,4.7224,4.7213,4.7234,4.7239,4.7243,4.7246,4.7122,4.7237,4.7236,4.7236,4.7236,4.7236,0,4.6505,4.6543,4.6603,4.6677,4.6729,4.6731,4.6789,4.6833,4.6899,4.6951,4.7008,4.709,4.7157,4.7205,4.7274,4.7312,4.7316,4.7329,4.7326,4.7334,4.7251,4.7232,4.7325,4.7325,4.7325,4.7325,4.7325,4.7325,4.6562,4.6642,4.6664,4.6767,4.6804,4.6878,4.6911,4.6957,4.7,4.7091,4.7148,4.7179,4.723,4.7303,4.7365,4.7378,4.7402,4.7416,4.7428,4.7349,4.734,4.7331,4.7312,4.7421,4.7421,4.7505,4.7506,4.7507]}]]